Deering, AK

9:44 PM AKDT on May 27, 2018 (GMT -0800)
Deering (New)

Weather History for PADE - October, 2012

Change the Weather History Date:

Tuesday, October 9, 2012

  Actual Average (PAOT) Record (PAOT)
Temperature  
Mean Temperature 25 °F -  
Max Temperature 35 °F 32 °F 48 °F (2016)
Min Temperature 16 °F 24 °F 8 °F (1971)
Degree Days  
Heating Degree Days 40    
Moisture  
Dew Point 20 °F    
Average Humidity 68    
Maximum Humidity 92    
Minimum Humidity 59    
Precipitation  
Precipitation 0.00 in - - ()
Sea Level Pressure  
Sea Level Pressure 30.54 in    
Wind  
Wind Speed 11 mph (NE)    
Max Wind Speed 17 mph    
Max Gust Speed -    
Visibility 10 miles    
Events      
Averages and records for this station are not official NWS values.
T = Trace of Precipitation, MM = Missing Value Source: NWS Daily Summary

Daily Weather History Graph

Daily Weather History Graph

Search for Another Location

Airport or City:

Astronomy

Oct. 09, 2012 Rise Set
Actual Time 9:30 AM AKDT 7:44 PM AKDT
Civil Twilight 8:38 AM AKDT 8:36 PM AKDT
Nautical Twilight 7:38 AM AKDT 9:35 PM AKDT
Astronomical Twilight 6:36 AM AKDT 10:37 PM AKDT
Moon 12:54 AM AKDT (10/9) 6:22 PM AKDT (10/9)
Length of Visible Light 11h 57m
Length of Day
10h 14m
Waning Crescent, 35% of the Moon is Illuminated
Oct 9
Waning Crescent
Oct 15
New
Oct 21
First Quarter
Oct 29
Full
Nov 6
Last Quarter

Hourly Weather History & Observations

Time (AKDT) Temp. Windchill Dew Point Humidity Pressure Visibility Wind Dir Wind Speed Gust Speed Precip Events Conditions
12:53 AM 32.0 °F 22.5 °F 21.9 °F 66% 30.54 in 10.0 mi NNE 12.7 mph - N/A   Clear
1:53 AM 32.0 °F 23.0 °F 21.0 °F 64% 30.55 in 10.0 mi NNE 11.5 mph - N/A   Clear
2:53 AM 30.9 °F 22.8 °F 21.9 °F 69% 30.55 in 10.0 mi NNE 9.2 mph - N/A   Partly Cloudy
3:53 AM 30.9 °F 23.5 °F 21.0 °F 67% 30.55 in 10.0 mi NNE 8.1 mph - N/A   Clear
4:53 AM 30.9 °F 22.8 °F 21.0 °F 67% 30.55 in 10.0 mi NNE 9.2 mph - N/A   Clear
5:53 AM 23.0 °F - 18.0 °F 81% 30.55 in 10.0 mi Calm Calm - N/A   Clear
6:53 AM 18.0 °F 12.7 °F 15.1 °F 88% 30.55 in 10.0 mi SW 3.5 mph - N/A   Clear
7:53 AM 18.0 °F 8.7 °F 15.1 °F 88% 30.55 in 10.0 mi SSW 6.9 mph - N/A   Clear
8:53 AM 17.1 °F 8.7 °F 14.0 °F 88% 30.56 in 10.0 mi SSW 5.8 mph - N/A   Clear
9:53 AM 16.0 °F 10.4 °F 14.0 °F 92% 30.56 in 10.0 mi Variable 3.5 mph - N/A   Clear
10:53 AM 30.9 °F 21.7 °F 21.9 °F 69% 30.57 in 10.0 mi NE 11.5 mph - N/A   Clear
11:53 AM 32.0 °F 21.6 °F 21.9 °F 66% 30.57 in 10.0 mi NE 15.0 mph - N/A   Clear
12:53 PM 33.1 °F 23.4 °F 21.0 °F 61% 30.57 in 10.0 mi NE 13.8 mph - N/A   Clear
1:53 PM 33.1 °F 22.2 °F 21.0 °F 61% 30.56 in 10.0 mi NE 17.3 mph - N/A   Clear
2:53 PM 34.0 °F 24.6 °F 21.0 °F 59% 30.55 in 10.0 mi NE 13.8 mph - N/A   Clear
3:53 PM 34.0 °F 24.2 °F 21.0 °F 59% 30.55 in 10.0 mi NE 15.0 mph - N/A   Clear
4:53 PM 34.0 °F 25.0 °F 21.9 °F 61% 30.54 in 10.0 mi NE 12.7 mph - N/A   Clear
5:53 PM 34.0 °F 24.6 °F 21.0 °F 59% 30.53 in 10.0 mi NE 13.8 mph - N/A   Clear
6:53 PM 34.0 °F 24.6 °F 21.0 °F 59% 30.52 in 10.0 mi NE 13.8 mph - N/A   Clear
7:53 PM 33.1 °F 23.0 °F 21.0 °F 61% 30.52 in 10.0 mi NE 15.0 mph - N/A   Clear
8:53 PM 33.1 °F 23.4 °F 21.9 °F 64% 30.52 in 10.0 mi NE 13.8 mph - N/A   Clear
9:53 PM 33.1 °F 22.6 °F 21.0 °F 61% 30.52 in 10.0 mi NE 16.1 mph - N/A   Clear
10:53 PM 33.1 °F 22.6 °F 21.9 °F 64% 30.52 in 10.0 mi ENE 16.1 mph - N/A   Clear
11:53 PM 33.1 °F 22.6 °F 21.9 °F 64% 30.51 in 10.0 mi ENE 16.1 mph - N/A   Clear